Location: Lake Lucerne
(45.5315°N, 88.8489°W)
Time: 21:27:05
(UTC-05:00)

ARIANE 6 FM1 Upper Stage - Pass Details

Date: 21 September 2024
Orbit: 563 x 594 km, 62.0° (Epoch: 09 October)

Event Time Altitude Azimuth Distance (km) Brightness Sun altitude
Exits shadow 04:05:21 51° 23° (NNE) 753 3.5 -26.9°
Maximum altitude 04:05:45 53° 45° (NE) 734 3.4 -26.8°
Drops below altitude 10° 04:10:02 10° 123° (ESE) 1,930 5.7 -26.2°
Sets 04:12:19 0° 128° (SE) 2,828 6.5 -25.8°
